SCP
0 0 1 1 1 2 1 1 1 1 1 1 1 1 1 1 1 1 1 1 0 0 0 0 0 0 0 0 0 0 0 0 0 0 0 1 1 0 0 0 0 0 0
0 1 1 1 1 2 1 1 1 1 1 1 1 1 1 1 1 1 1 1 0 0 0 0 0 0 0 0 1 1 0 0 0 1 1 1 1 1 1 1 0 0 0
1 1 1 1 1 1 1 1 1 1 1 1 1 1 1 2 2 1 1 1 0 0 0 0 0 0 0 1 1 1 1 1 1 1 1 1 1 1 1 1 1 1 1
0 1 1 1 1 1 1 1 1 0 0 1 1 1 1 1 2 1 1 1 0 0 0 0 0 0 1 1 1 1 1 1 1 1 1 1 1 1 1 1 1 1 1
0 0 1 1 1 1 1 1 0 0 0 0 1 1 1 1 1 1 1 1 0 0 0 0 0 0 1 1 1 1 1 1 1 1 1 1 1 1 2 1 1 1 1
0 0 0 1 0 0 0 0 0 0 0 0 0 1 1 1 1 1 1 0 0 0 0 0 1 1 1 1 1 1 1 1 1 1 1 1 1 2 2 2 2 2 2
1 1 1 1 0 0 0 1 1 1 1 0 0 1 1 1 0 0 0 0 0 1 1 1 1 1 1 1 1 1 1 1 1 2 1 1 2 3 3 3 2 2 2
1 1 1 1 1 1 1 1 1 1 1 1 1 1 1 1 1 0 0 1 1 1 1 1 1 1 1 1 1 1 1 1 1 2 1 1 2 2 2 2 2 1 1
1 1 1 1 1 1 1 1 1 1 1 1 1 1 1 1 1 1 1 1 1 1 1 1 1 1 1 1 1 1 1 0 1 1 1 1 1 1 1 1 1 1 1
0 0 1 1 1 1 1 1 1 2 2 2 2 2 2 1 1 1 1 1 1 1 2 1 1 1 1 1 1 1 0 0 0 0 0 0 0 0 0 1 1 1 1
0 0 1 1 1 1 1 1 2 2 2 2 2 2 1 1 1 1 1 1 1 2 2 1 1 1 1 1 0 0 0 0 0 0 0 0 0 0 0 1 1 1 1
0 0 0 1 1 1 1 1 1 2 2 2 2 1 1 1 1 1 1 1 1 1 1 1 0 0 0 0 0 0 0 0 0 0 0 0 1 1 1 1 1 1 1
0 0 0 1 1 1 1 1 1 1 1 1 1 1 1 0 0 1 1 1 1 1 1 0 0 0 0 0 0 0 0 0 0 0 1 1 2 2 2 2 2 2 1
0 0 0 0 0 0 0 0 0 0 0 0 0 0 0 0 0 0 0 0 0 0 0 0 0 0 0 0 0 0 0 0 0 1 1 2 3 3 3 3 3 3 3
0 0 0 0 0 0 0 0 0 0 0 0 0 0 0 1 1 1 1 0 0 0 0 0 0 0 0 0 0 0 0 1 1 1 1 2 3 3 3 3 4 4 4
0 0 0 0 0 0 0 0 0 0 0 0 0 0 0 1 1 1 0 0 0 0 0 0 0 0 0 0 0 0 1 1 1 1 1 2 2 3 3 3 4 4 5
0 0 0 0 0 0 0 0 0 0 0 0 0 0 0 0 1 1 0 0 0 0 0 0 0 0 0 0 0 1 1 1 1 1 1 1 1 2 2 3 4 5 5
0 0 0 0 1 1 0 0 0 0 0 0 0 0 0 0 0 0 0 0 0 0 0 0 0 0 0 0 0 0 1 1 1 1 1 1 1 1 1 2 3 4 5
0 0 0 0 1 0 0 0 0 0 0 0 0 0 0 0 0 0 0 0 0 0 0 0 0 0 0 0 0 0 0 1 1 1 0 0 0 0 0 1 2 3 3
0 0 0 0 0 0 0 0 0 0 0 0 0 0 0 0 0 0 0 0 0 0 0 0 0 0 0 0 0 0 0 0 0 0 0 0 0 0 0 0 0 1 1
0 0 0 0 0 0 0 0 0 0 0 0 0 0 0 0 0 0 0 0 0 0 0 0 0 0 0 0 0 0 0 0 0 0 0 0 0 0 0 0 0 0 0
0 0 0 0 0 0 0 0 0 0 0 0 0 0 0 0 0 0 0 0 0 0 0 0 0 0 0 0 0 0 0 0 0 0 0 0 0 0 0 0 0 0 0
0 0 0 0 0 0 0 0 0 0 0 0 0 0 0 0 0 0 0 0 0 0 0 0 0 0 0 0 0 0 0 0 0 0 0 0 0 0 0 0 0 0 0
0 0 0 0 0 0 0 0 0 0 0 0 0 0 0 0 0 0 0 0 0 0 0 0 0 0 0 0 0 0 0 0 0 0 0 0 0 0 0 0 0 0 0
0 0 0 0 0 0 0 0 0 0 0 0 0 0 0 0 0 0 0 0 0 0 0 0 0 0 0 0 0 0 0 0 0 0 0 0 0 0 0 0 0 0 0
0 0 0 0 0 0 0 0 0 0 0 0 0 0 0 0 0 0 0 0 0 0 0 0 0 0 0 0 0 0 0 0 0 0 0 0 0 0 0 0 0 0 0
Wind_Speed
3 5 8 10 11 13 13 13 12 12 12 12 11 11 12 12 11 10 10 9 8 7 7 7 6 5 4 4 4 5 6 7 6 5 3 2 3 4 6 6 6 6 9
6 5 8 10 11 12 13 12 12 11 10 11 11 10 10 11 10 10 9 9 8 7 7 6 5 4 3 3 5 6 7 7 7 7 7 4 2 4 4 4 5 6 9
7 5 6 9 10 11 11 11 11 10 10 10 10 9 9 9 9 8 8 8 8 8 8 6 4 3 2 3 4 4 4 5 6 6 6 6 5 4 4 3 2 5 7
4 3 4 8 10 10 11 10 11 10 10 9 8 8 8 8 7 6 6 6 7 8 8 8 7 6 4 2 1 3 4 6 6 6 5 5 4 4 2 1 1 5 7
4 2 3 8 9 11 13 12 11 9 9 9 8 7 7 6 6 5 5 5 5 5 5 4 4 3 2 1 3 4 5 6 6 4 4 4 4 2 3 4 2 4 7
3 1 2 6 7 9 10 9 11 10 8 7 7 6 5 4 3 3 3 3 3 2 1 1 1 1 4 4 4 5 6 6 5 2 2 3 3 3 5 5 4 2 5
4 3 2 3 5 7 9 9 8 9 8 6 6 5 4 3 2 2 2 1 1 1 1 3 5 6 5 4 6 8 9 8 5 4 2 1 3 3 4 4 4 3 1
4 3 3 1 4 6 9 9 7 7 7 7 6 6 6 4 3 3 2 1 2 2 4 5 5 5 5 5 7 8 9 8 4 3 2 1 1 2 2 2 2 2 2
4 2 1 1 1 3 5 7 7 7 6 6 7 8 7 5 3 2 2 1 0 2 3 4 4 4 4 5 7 9 8 6 3 0 1 1 3 3 2 1 1 1 1
5 2 2 1 2 1 2 7 8 8 7 7 7 7 5 3 2 2 2 1 2 2 2 2 2 2 2 4 6 7 6 5 3 2 1 2 5 5 4 3 3 4 4
3 6 8 8 6 4 2 4 6 6 6 6 5 4 3 2 2 1 2 4 5 4 3 1 1 1 2 3 5 5 3 1 2 1 2 5 7 6 6 5 5 6 6
8 8 7 6 6 4 2 2 1 2 2 2 2 2 2 1 0 1 2 2 2 2 1 2 4 4 3 2 2 2 1 2 2 2 3 9 9 10 10 9 8 8 8
10 4 6 5 5 3 2 2 1 1 1 1 2 3 2 2 2 2 2 2 3 3 2 3 3 2 1 2 2 2 3 3 2 2 4 9 10 12 12 11 11 11 11
4 1 2 2 3 3 2 2 2 1 1 1 1 2 1 1 1 1 1 1 2 2 3 3 3 3 4 4 3 3 3 2 2 2 4 9 8 9 11 13 11 10 12
4 4 7 4 3 3 2 2 2 3 2 2 2 2 2 2 2 2 1 1 2 2 3 3 3 4 5 5 5 5 4 3 4 4 4 9 10 11 12 12 10 11 13
10 8 5 2 3 3 3 4 4 4 3 2 1 0 1 3 3 2 1 1 1 2 2 2 2 2 3 3 4 4 4 3 3 3 3 5 8 10 13 13 12 13 14
6 4 3 2 5 6 4 3 2 2 3 3 3 3 3 1 1 1 1 1 1 1 1 1 2 2 2 2 3 4 4 4 3 3 4 4 5 8 11 13 12 11 12
5 5 2 2 6 6 5 3 2 3 4 4 3 3 4 4 3 2 2 2 3 3 3 3 3 3 4 4 4 4 5 5 6 6 6 6 5 5 7 11 10 9 10
5 4 2 2 6 7 6 5 5 6 6 5 4 4 5 6 5 4 3 2 2 2 2 2 2 3 3 4 4 4 4 4 4 4 4 4 4 4 4 7 11 11 11
5 3 1 4 7 7 6 7 7 7 6 5 5 6 7 6 7 5 4 4 4 3 3 3 4 5 4 4 4 4 5 4 1 1 2 1 1 1 2 3 3 4 11
4 1 3 7 6 6 5 5 5 5 4 6 6 7 7 7 7 6 5 5 5 5 5 5 2 4 5 4 3 4 4 3 1 2 3 2 1 1 1 1 2 3 4
4 5 7 8 7 5 5 4 5 4 4 4 5 7 7 7 7 7 6 5 5 4 5 5 5 3 3 4 3 4 4 4 2 6 6 4 4 4 5 6 5 5 3
7 8 8 9 9 7 6 6 6 5 4 4 4 4 6 7 7 6 5 4 3 3 3 3 3 3 2 2 1 2 3 5 5 4 4 3 4 5 6 6 7 6 6
10 10 11 11 10 8 7 7 6 4 3 3 2 3 4 6 6 5 5 4 4 3 3 3 4 3 2 3 3 2 3 4 5 5 3 6 6 7 8 8 9 8 8
12 12 12 13 11 9 8 7 6 6 4 3 2 4 3 3 3 3 3 3 3 3 3 3 3 3 2 2 2 3 3 3 4 5 8 8 8 7 8 8 8 7 8
12 11 11 13 12 9 9 8 7 6 4 3 2 1 1 1 2 2 3 2 2 2 2 3 3 3 2 2 2 2 2 3 5 5 8 11 11 8 8 7 7 8 7
Wind_Direction
168 158 153 148 146 136 132 133 133 130 122 114 109 106 108 111 112 114 117 121 127 135 135 133 133 129 119 102 68 44 32 27 14 5 6 59 116 149 170 182 195 178 169
135 138 146 148 148 138 133 133 132 131 128 125 122 118 116 117 118 121 124 129 138 146 148 154 154 145 113 61 44 38 27 16 7 359 342 316 241 197 202 226 237 186 180
119 131 136 139 141 136 130 129 131 134 138 138 133 128 122 120 122 126 132 141 150 156 160 163 166 159 125 74 48 25 7 358 355 354 349 338 313 265 227 227 197 185 194
107 115 122 131 134 136 134 134 134 140 145 146 143 139 131 129 128 131 138 152 158 164 167 174 184 183 161 122 10 347 356 1 357 10 19 358 311 287 324 351 229 221 218
65 72 129 133 140 146 148 144 139 144 151 154 151 146 141 139 139 143 153 171 180 184 175 189 206 204 154 40 358 11 20 13 7 33 61 40 4 21 15 8 356 249 227
66 57 122 136 139 146 138 138 142 150 153 157 158 148 148 146 150 151 170 179 184 190 195 267 252 25 63 49 31 13 8 10 20 12 81 48 28 12 38 32 19 307 231
36 22 36 121 123 133 135 135 139 147 155 169 170 155 147 143 155 161 206 184 184 287 355 24 39 51 53 29 2 354 351 354 26 21 50 56 36 32 63 58 47 32 7
30 21 2 26 97 111 142 154 158 165 167 171 173 158 154 157 179 202 197 236 293 354 54 56 41 34 24 7 355 351 351 358 39 76 109 95 29 33 94 112 79 51 16
72 15 360 337 83 124 134 149 159 162 158 153 155 150 148 160 176 182 159 182 267 97 97 77 43 25 12 351 340 339 339 347 40 345 266 305 333 321 297 200 195 239 276
87 12 306 249 224 206 171 166 154 150 153 147 144 142 147 168 158 158 163 212 210 173 143 95 15 21 4 345 340 336 350 13 11 348 273 294 308 301 292 281 271 262 257
127 208 205 198 191 175 171 185 160 161 162 155 149 149 123 96 101 142 193 206 214 194 163 220 288 333 346 1 352 338 11 16 309 291 278 286 286 270 260 250 245 250 253
207 209 208 191 177 169 169 183 155 165 145 139 123 95 83 68 358 246 234 256 247 190 143 313 318 337 357 355 327 333 332 283 268 269 267 274 279 274 270 260 244 239 239
213 192 200 174 154 147 127 103 72 48 82 86 90 91 67 41 10 5 11 10 2 7 3 336 325 320 273 265 293 316 317 305 275 274 277 284 291 289 284 278 263 243 234
248 281 34 62 108 99 101 125 124 124 112 103 83 89 77 55 36 11 17 4 357 336 313 290 284 289 286 281 277 277 273 290 319 321 308 308 310 310 304 297 289 267 248
20 6 23 38 68 92 123 124 144 144 131 142 159 161 191 208 211 235 262 300 294 299 296 292 312 328 331 327 315 313 317 324 321 312 308 315 323 323 312 300 292 286 269
37 21 23 63 94 124 151 171 169 147 138 130 120 140 263 241 217 239 255 258 270 287 291 277 283 312 311 316 315 311 301 299 295 291 298 304 318 320 314 310 311 310 299
56 40 39 127 134 143 157 182 161 131 116 92 62 26 17 4 102 113 60 29 8 331 313 345 312 299 318 328 317 318 313 318 333 345 343 335 337 340 339 329 326 325 313
59 45 16 151 143 136 135 134 108 85 80 65 57 55 46 49 59 63 57 23 357 9 12 4 356 345 4 359 343 338 333 342 348 7 13 5 357 1 350 333 337 347 336
67 51 29 139 133 132 126 101 76 72 73 70 62 57 56 57 59 66 59 27 21 35 25 30 39 25 19 356 342 348 338 334 348 22 3 349 353 9 5 355 2 3 355
56 28 93 108 115 111 99 89 82 75 64 57 54 48 50 50 49 52 46 36 35 44 23 33 68 53 24 352 343 337 312 287 230 74 347 336 4 45 29 4 352 11 1
38 68 102 100 94 98 95 89 83 74 62 60 54 47 46 46 41 41 39 37 40 48 33 27 48 49 22 1 356 320 295 289 146 6 355 346 333 318 304 319 298 315 334
63 72 74 72 73 66 75 82 88 87 75 67 53 41 41 48 45 47 42 42 43 46 40 32 28 15 359 14 12 320 319 314 337 329 322 315 324 328 320 315 297 289 333
67 59 61 59 63 58 66 83 84 81 67 43 36 36 38 55 56 53 49 45 45 51 47 33 26 20 336 332 315 285 307 298 319 284 291 315 311 309 316 311 302 304 313
83 75 69 62 56 54 58 75 75 74 86 66 66 80 55 48 48 42 37 34 32 29 34 25 27 15 359 331 317 309 303 297 300 310 314 306 297 298 297 298 298 294 299
76 71 70 68 58 51 56 71 82 85 84 90 81 83 73 53 44 42 48 53 46 30 30 31 26 16 7 326 320 318 311 299 280 292 298 297 288 284 283 289 292 298 300
76 73 68 66 51 45 54 61 76 87 83 82 78 76 43 12 10 20 40 52 51 29 8 18 11 4 2 345 337 325 303 305 312 298 294 299 295 287 281 291 287 286 285